Time,TemperatureF,DewpointF,PressureIn,WindDirection,WindDirectionDegrees,WindSpeedMPH,WindSpeedGustMPH,Humidity,HourlyPrecipIn,Conditions,Clouds,dailyrainin,SoftwareType,DateUTC
2013-01-23 00:00:00,49.3,13.6,30.16,SE,135,0.0,0.0,24,0.00,,,0.00,WUHU21623XXSP,2013-01-23 08:00:00,
2013-01-23 00:05:00,49.3,13.6,30.16,SE,135,0.0,0.0,24,0.00,,,0.00,WUHU21623XXSP,2013-01-23 08:05:00,
2013-01-23 00:10:00,49.8,14.1,30.17,SE,135,0.0,0.0,24,0.00,,,0.00,WUHU21623XXSP,2013-01-23 08:10:00,
2013-01-23 00:15:00,49.8,14.1,30.16,SE,135,0.0,0.0,24,0.00,,,0.00,WUHU21623XXSP,2013-01-23 08:15:00,
2013-01-23 00:20:00,49.8,14.1,30.16,SE,135,0.0,0.0,24,0.00,,,0.00,WUHU21623XXSP,2013-01-23 08:20:00,
2013-01-23 00:25:00,49.8,14.1,30.16,SE,135,0.0,0.0,24,0.00,,,0.00,WUHU21623XXSP,2013-01-23 08:25:00,
2013-01-23 00:30:00,49.6,13.9,30.16,SE,135,0.0,0.0,24,0.00,,,0.00,WUHU21623XXSP,2013-01-23 08:30:00,
2013-01-23 00:35:00,49.5,13.8,30.16,SE,135,0.0,0.0,24,0.00,,,0.00,WUHU21623XXSP,2013-01-23 08:35:00,
2013-01-23 00:40:00,49.6,14.9,30.15,SE,135,0.0,0.0,25,0.00,,,0.00,WUHU21623XXSP,2013-01-23 08:40:00,
2013-01-23 00:45:00,49.3,14.6,30.16,SE,135,0.0,0.0,25,0.00,,,0.00,WUHU21623XXSP,2013-01-23 08:45:00,
2013-01-23 00:50:00,49.1,14.4,30.15,SE,135,0.0,0.0,25,0.00,,,0.00,WUHU21623XXSP,2013-01-23 08:50:00,
2013-01-23 00:55:00,49.1,14.4,30.15,SE,135,0.0,0.0,25,0.00,,,0.00,WUHU21623XXSP,2013-01-23 08:55:00,
2013-01-23 01:00:00,48.9,14.3,30.15,SE,135,0.0,0.0,25,0.00,,,0.00,WUHU21623XXSP,2013-01-23 09:00:00,
2013-01-23 01:06:00,48.9,14.3,30.16,SE,135,0.0,0.0,25,0.00,,,0.00,WUHU21623XXSP,2013-01-23 09:06:00,
2013-01-23 01:11:00,49.1,14.4,30.15,SE,135,0.0,0.0,25,0.00,,,0.00,WUHU21623XXSP,2013-01-23 09:11:00,
2013-01-23 01:16:00,49.1,14.4,30.15,SE,135,0.0,0.0,25,0.00,,,0.00,WUHU21623XXSP,2013-01-23 09:16:00,
2013-01-23 01:21:00,49.1,15.3,30.15,SE,135,0.0,0.0,26,0.00,,,0.00,WUHU21623XXSP,2013-01-23 09:21:00,
2013-01-23 01:26:00,49.1,15.3,30.15,SE,135,0.0,0.0,26,0.00,,,0.00,WUHU21623XXSP,2013-01-23 09:26:00,
2013-01-23 01:31:00,49.1,15.3,30.16,SE,135,0.0,0.0,26,0.00,,,0.00,WUHU21623XXSP,2013-01-23 09:31:00,
2013-01-23 01:36:00,49.1,15.3,30.15,SE,135,0.0,0.0,26,0.00,,,0.00,WUHU21623XXSP,2013-01-23 09:36:00,
2013-01-23 01:41:00,49.3,15.5,30.16,SE,135,0.0,0.0,26,0.00,,,0.00,WUHU21623XXSP,2013-01-23 09:41:00,
2013-01-23 01:46:00,49.8,15.0,30.16,SE,135,0.0,0.0,25,0.00,,,0.00,WUHU21623XXSP,2013-01-23 09:46:00,
2013-01-23 01:51:00,50.5,16.5,30.16,SE,135,0.0,0.0,26,0.00,,,0.00,WUHU21623XXSP,2013-01-23 09:51:00,
2013-01-23 01:57:00,51.1,17.0,30.15,SE,135,0.0,0.0,26,0.00,,,0.00,WUHU21623XXSP,2013-01-23 09:57:00,
2013-01-23 02:02:00,51.1,17.0,30.15,SE,135,0.0,0.0,26,0.00,,,0.00,WUHU21623XXSP,2013-01-23 10:02:00,
2013-01-23 02:07:00,50.9,16.9,30.15,SE,135,0.0,0.0,26,0.00,,,0.00,WUHU21623XXSP,2013-01-23 10:07:00,
2013-01-23 02:12:00,50.7,16.7,30.15,SE,135,0.0,0.0,26,0.00,,,0.00,WUHU21623XXSP,2013-01-23 10:12:00,
2013-01-23 02:17:00,50.7,16.7,30.15,SE,135,0.0,0.0,26,0.00,,,0.00,WUHU21623XXSP,2013-01-23 10:17:00,
2013-01-23 02:22:00,50.7,16.7,30.15,SE,135,0.0,0.0,26,0.00,,,0.00,WUHU21623XXSP,2013-01-23 10:22:00,
2013-01-23 02:27:00,50.9,16.9,30.15,SE,135,0.0,0.0,26,0.00,,,0.00,WUHU21623XXSP,2013-01-23 10:27:00,
2013-01-23 02:32:00,50.9,16.9,30.15,NE,45,0.0,1.8,26,0.00,,,0.00,WUHU21623XXSP,2013-01-23 10:32:00,
2013-01-23 02:37:00,50.9,16.9,30.15,NE,45,0.0,1.8,26,0.00,,,0.00,WUHU21623XXSP,2013-01-23 10:37:00,
2013-01-23 02:42:00,50.7,16.7,30.15,NE,45,0.0,0.0,26,0.00,,,0.00,WUHU21623XXSP,2013-01-23 10:42:00,
2013-01-23 02:47:00,50.9,16.9,30.15,SSE,157,0.0,0.0,26,0.00,,,0.00,WUHU21623XXSP,2013-01-23 10:47:00,
2013-01-23 02:52:00,51.4,17.3,30.15,SSE,157,0.0,0.4,26,0.00,,,0.00,WUHU21623XXSP,2013-01-23 10:52:00,
2013-01-23 02:57:00,51.6,17.5,30.15,SSE,157,0.0,0.4,26,0.00,,,0.00,WUHU21623XXSP,2013-01-23 10:57:00,
2013-01-23 03:02:00,51.3,17.2,30.14,SSE,157,0.0,0.0,26,0.00,,,0.00,WUHU21623XXSP,2013-01-23 11:02:00,
2013-01-23 03:07:00,50.9,16.9,30.14,SSE,157,0.0,0.0,26,0.00,,,0.00,WUHU21623XXSP,2013-01-23 11:07:00,
2013-01-23 03:12:00,50.9,16.9,30.14,SSE,157,0.0,0.0,26,0.00,,,0.00,WUHU21623XXSP,2013-01-23 11:12:00,
2013-01-23 03:18:00,50.9,17.8,30.14,SSE,157,0.0,0.0,27,0.00,,,0.00,WUHU21623XXSP,2013-01-23 11:18:00,
2013-01-23 03:23:00,51.1,17.9,30.14,SSE,157,0.0,0.0,27,0.00,,,0.00,WUHU21623XXSP,2013-01-23 11:23:00,
2013-01-23 03:28:00,51.1,17.9,30.14,SSE,157,0.0,0.0,27,0.00,,,0.00,WUHU21623XXSP,2013-01-23 11:28:00,
2013-01-23 03:33:00,51.4,18.2,30.14,SSE,157,0.0,2.2,27,0.00,,,0.00,WUHU21623XXSP,2013-01-23 11:33:00,
2013-01-23 03:38:00,51.6,18.4,30.14,SSE,157,0.0,2.2,27,0.00,,,0.00,WUHU21623XXSP,2013-01-23 11:38:00,
2013-01-23 03:43:00,51.6,18.4,30.14,SSE,157,0.0,0.0,27,0.00,,,0.00,WUHU21623XXSP,2013-01-23 11:43:00,
2013-01-23 03:48:00,51.4,18.2,30.14,SSE,157,0.0,0.0,27,0.00,,,0.00,WUHU21623XXSP,2013-01-23 11:48:00,
2013-01-23 03:53:00,51.4,18.2,30.14,SSE,157,0.0,0.0,27,0.00,,,0.00,WUHU21623XXSP,2013-01-23 11:53:00,
2013-01-23 03:58:00,51.3,18.1,30.14,SSE,157,0.0,0.0,27,0.00,,,0.00,WUHU21623XXSP,2013-01-23 11:58:00,
2013-01-23 04:03:00,51.3,19.0,30.14,SSE,157,0.0,0.0,28,0.00,,,0.00,WUHU21623XXSP,2013-01-23 12:03:00,
2013-01-23 04:08:00,51.3,19.0,30.14,SSE,157,0.0,0.0,28,0.00,,,0.00,WUHU21623XXSP,2013-01-23 12:08:00,
2013-01-23 04:13:00,51.4,19.2,30.14,SSE,157,0.0,0.0,28,0.00,,,0.00,WUHU21623XXSP,2013-01-23 12:13:00,
2013-01-23 04:18:00,51.6,19.3,30.14,SSE,157,0.0,0.0,28,0.00,,,0.00,WUHU21623XXSP,2013-01-23 12:18:00,
2013-01-23 04:23:00,51.6,19.3,30.14,SSE,157,0.0,0.0,28,0.00,,,0.00,WUHU21623XXSP,2013-01-23 12:23:00,
2013-01-23 04:28:00,51.6,19.3,30.13,SSE,157,0.0,0.0,28,0.00,,,0.00,WUHU21623XXSP,2013-01-23 12:28:00,
2013-01-23 04:33:00,51.4,19.2,30.13,SSE,157,0.0,0.0,28,0.00,,,0.00,WUHU21623XXSP,2013-01-23 12:33:00,
2013-01-23 04:38:00,51.3,20.0,30.13,SSE,157,0.0,0.0,29,0.00,,,0.00,WUHU21623XXSP,2013-01-23 12:38:00,
2013-01-23 04:43:00,51.6,20.3,30.13,SSE,157,0.0,0.0,29,0.00,,,0.00,WUHU21623XXSP,2013-01-23 12:43:00,
2013-01-23 04:48:00,52.2,20.8,30.13,SSE,157,0.0,0.0,29,0.00,,,0.00,WUHU21623XXSP,2013-01-23 12:48:00,
2013-01-23 04:53:00,52.2,19.8,30.13,SSE,157,0.0,0.0,28,0.00,,,0.00,WUHU21623XXSP,2013-01-23 12:53:00,
2013-01-23 04:58:00,52.0,20.6,30.13,SSE,157,0.0,0.0,29,0.00,,,0.00,WUHU21623XXSP,2013-01-23 12:58:00,
2013-01-23 05:03:00,51.8,19.5,30.13,SSE,157,0.0,0.0,28,0.00,,,0.00,WUHU21623XXSP,2013-01-23 13:03:00,
2013-01-23 05:08:00,51.6,20.3,30.14,SSE,157,0.0,0.0,29,0.00,,,0.00,WUHU21623XXSP,2013-01-23 13:08:00,
2013-01-23 05:13:00,51.4,20.1,30.14,SSE,157,0.0,0.0,29,0.00,,,0.00,WUHU21623XXSP,2013-01-23 13:13:00,
2013-01-23 05:18:00,50.9,19.6,30.14,SSE,157,0.0,0.0,29,0.00,,,0.00,WUHU21623XXSP,2013-01-23 13:18:00,
2013-01-23 05:23:00,50.9,19.6,30.14,SSE,157,0.0,0.0,29,0.00,,,0.00,WUHU21623XXSP,2013-01-23 13:23:00,
2013-01-23 05:29:00,50.9,19.6,30.14,SSE,157,0.0,0.0,29,0.00,,,0.00,WUHU21623XXSP,2013-01-23 13:29:00,
2013-01-23 05:34:00,50.9,19.6,30.14,SSE,157,0.0,0.0,29,0.00,,,0.00,WUHU21623XXSP,2013-01-23 13:34:00,
2013-01-23 05:39:00,50.9,19.6,30.14,SSE,157,0.0,0.0,29,0.00,,,0.00,WUHU21623XXSP,2013-01-23 13:39:00,
2013-01-23 05:44:00,50.7,19.5,30.14,SSE,157,0.0,0.0,29,0.00,,,0.00,WUHU21623XXSP,2013-01-23 13:44:00,
2013-01-23 05:49:00,50.5,19.3,30.14,SSE,157,0.0,0.0,29,0.00,,,0.00,WUHU21623XXSP,2013-01-23 13:49:00,
2013-01-23 05:54:00,50.5,19.3,30.14,SSE,157,0.0,0.0,29,0.00,,,0.00,WUHU21623XXSP,2013-01-23 13:54:00,
2013-01-23 05:59:00,50.4,19.1,30.14,SSE,157,0.0,0.0,29,0.00,,,0.00,WUHU21623XXSP,2013-01-23 13:59:00,
2013-01-23 06:04:00,50.4,20.1,30.14,SSE,157,0.0,0.0,30,0.00,,,0.00,WUHU21623XXSP,2013-01-23 14:04:00,
2013-01-23 06:09:00,50.4,20.1,30.14,SSE,157,0.0,0.0,30,0.00,,,0.00,WUHU21623XXSP,2013-01-23 14:09:00,
2013-01-23 06:14:00,50.0,19.8,30.14,SSE,157,0.0,0.0,30,0.00,,,0.00,WUHU21623XXSP,2013-01-23 14:14:00,
2013-01-23 06:19:00,49.8,19.6,30.14,SSE,157,0.0,0.0,30,0.00,,,0.00,WUHU21623XXSP,2013-01-23 14:19:00,
2013-01-23 06:24:00,49.8,19.6,30.14,SSE,157,0.0,0.0,30,0.00,,,0.00,WUHU21623XXSP,2013-01-23 14:24:00,
2013-01-23 06:29:00,49.8,19.6,30.15,SSE,157,0.0,0.0,30,0.00,,,0.00,WUHU21623XXSP,2013-01-23 14:29:00,
2013-01-23 06:34:00,50.0,19.8,30.15,SSE,157,0.0,0.0,30,0.00,,,0.00,WUHU21623XXSP,2013-01-23 14:34:00,
2013-01-23 06:39:00,50.2,19.9,30.15,SSE,157,0.0,0.0,30,0.00,,,0.00,WUHU21623XXSP,2013-01-23 14:39:00,
2013-01-23 06:44:00,50.2,19.9,30.15,SSE,157,0.0,0.0,30,0.00,,,0.00,WUHU21623XXSP,2013-01-23 14:44:00,
2013-01-23 06:49:00,50.5,20.2,30.15,SSE,157,0.0,0.0,30,0.00,,,0.00,WUHU21623XXSP,2013-01-23 14:49:00,
2013-01-23 06:54:00,50.7,20.4,30.15,SSE,157,0.0,0.0,30,0.00,,,0.00,WUHU21623XXSP,2013-01-23 14:54:00,
2013-01-23 06:59:00,50.7,21.1,30.15,SSE,157,0.0,0.0,31,0.00,,,0.00,WUHU21623XXSP,2013-01-23 14:59:00,
2013-01-23 07:04:00,51.1,21.4,30.15,SSE,157,0.0,0.0,31,0.00,,,0.00,WUHU21623XXSP,2013-01-23 15:04:00,
2013-01-23 07:09:00,51.1,21.4,30.15,SSE,157,0.0,0.0,31,0.00,,,0.00,WUHU21623XXSP,2013-01-23 15:09:00,
2013-01-23 07:14:00,51.1,21.6,30.15,SSE,157,0.0,0.0,31,0.00,,,0.00,WUHU21623XXSP,2013-01-23 15:14:00,
2013-01-23 07:19:00,51.3,21.6,30.15,SSE,157,0.0,0.0,31,0.00,,,0.00,WUHU21623XXSP,2013-01-23 15:19:00,
2013-01-23 07:24:00,51.4,21.7,30.16,SSE,157,0.0,0.0,31,0.00,,,0.00,WUHU21623XXSP,2013-01-23 15:24:00,
2013-01-23 07:29:00,51.4,21.7,30.16,SSE,157,0.0,0.0,31,0.00,,,0.00,WUHU21623XXSP,2013-01-23 15:29:00,
2013-01-23 07:34:00,51.6,21.9,30.16,SSE,157,0.0,0.0,31,0.00,,,0.00,WUHU21623XXSP,2013-01-23 15:34:00,
2013-01-23 07:39:00,52.3,22.5,30.16,SSE,157,0.0,0.0,31,0.00,,,0.00,WUHU21623XXSP,2013-01-23 15:39:00,
2013-01-23 07:44:00,52.5,22.7,30.16,SSE,157,0.0,0.0,31,0.00,,,0.00,WUHU21623XXSP,2013-01-23 15:44:00,
2013-01-23 07:49:00,53.1,23.2,30.16,SSE,157,0.0,0.0,31,0.00,,,0.00,WUHU21623XXSP,2013-01-23 15:49:00,
2013-01-23 07:54:00,53.4,23.5,30.16,SSE,157,0.0,0.0,31,0.00,,,0.00,WUHU21623XXSP,2013-01-23 15:54:00,
2013-01-23 07:59:00,54.1,23.4,30.16,SSE,157,0.0,0.0,30,0.00,,,0.00,WUHU21623XXSP,2013-01-23 15:59:00,
2013-01-23 08:04:00,54.5,23.7,30.17,South,180,0.0,2.2,30,0.00,,,0.00,WUHU21623XXSP,2013-01-23 16:04:00,
2013-01-23 08:09:00,54.7,23.9,30.17,South,180,0.0,2.5,30,0.00,,,0.00,WUHU21623XXSP,2013-01-23 16:09:00,
2013-01-23 08:14:00,55.0,24.2,30.17,South,180,0.0,2.5,30,0.00,,,0.00,WUHU21623XXSP,2013-01-23 16:14:00,
2013-01-23 08:19:00,55.2,23.3,30.17,South,180,0.0,1.6,29,0.00,,,0.00,WUHU21623XXSP,2013-01-23 16:19:00,
2013-01-23 08:24:00,55.2,23.3,30.17,South,180,0.0,0.0,29,0.00,,,0.00,WUHU21623XXSP,2013-01-23 16:24:00,
2013-01-23 08:29:00,55.4,23.5,30.18,South,180,0.0,0.9,29,0.00,,,0.00,WUHU21623XXSP,2013-01-23 16:29:00,
2013-01-23 08:34:00,55.4,23.5,30.18,South,180,0.0,0.9,29,0.00,,,0.00,WUHU21623XXSP,2013-01-23 16:34:00,
2013-01-23 08:39:00,55.6,23.6,30.18,South,180,0.0,0.0,29,0.00,,,0.00,WUHU21623XXSP,2013-01-23 16:39:00,
2013-01-23 08:44:00,55.6,23.6,30.18,South,180,0.0,0.0,29,0.00,,,0.00,WUHU21623XXSP,2013-01-23 16:44:00,
2013-01-23 08:49:00,55.9,23.0,30.18,South,180,0.0,0.0,28,0.00,,,0.00,WUHU21623XXSP,2013-01-23 16:49:00,
2013-01-23 08:54:00,56.1,23.2,30.18,South,180,0.0,0.0,28,0.00,,,0.00,WUHU21623XXSP,2013-01-23 16:54:00,
2013-01-23 08:59:00,56.5,22.6,30.19,South,180,0.0,0.0,27,0.00,,,0.00,WUHU21623XXSP,2013-01-23 16:59:00,
2013-01-23 09:04:00,56.8,22.9,30.19,South,180,0.0,0.0,27,0.00,,,0.00,WUHU21623XXSP,2013-01-23 17:04:00,
2013-01-23 09:09:00,57.0,23.0,30.19,South,180,0.0,0.0,27,0.00,,,0.00,WUHU21623XXSP,2013-01-23 17:09:00,
2013-01-23 09:14:00,57.2,23.2,30.19,South,180,0.0,0.0,27,0.00,,,0.00,WUHU21623XXSP,2013-01-23 17:14:00,
2013-01-23 09:19:00,58.5,24.3,30.19,South,180,0.0,0.0,27,0.00,,,0.00,WUHU21623XXSP,2013-01-23 17:19:00,
2013-01-23 09:24:00,59.7,24.4,30.19,South,180,0.0,0.0,26,0.00,,,0.00,WUHU21623XXSP,2013-01-23 17:24:00,
2013-01-23 09:29:00,60.1,24.7,30.19,South,180,0.0,0.0,26,0.00,,,0.00,WUHU21623XXSP,2013-01-23 17:29:00,
2013-01-23 09:34:00,60.1,24.7,30.19,South,180,0.0,3.6,26,0.00,,,0.00,WUHU21623XXSP,2013-01-23 17:34:00,
2013-01-23 09:39:00,60.1,23.7,30.19,South,180,0.0,3.6,25,0.00,,,0.00,WUHU21623XXSP,2013-01-23 17:39:00,
2013-01-23 09:44:00,59.9,23.6,30.19,South,180,0.0,3.6,25,0.00,,,0.00,WUHU21623XXSP,2013-01-23 17:44:00,
2013-01-23 09:49:00,59.9,23.6,30.18,South,180,0.0,0.9,25,0.00,,,0.00,WUHU21623XXSP,2013-01-23 17:49:00,
2013-01-23 09:54:00,60.1,23.7,30.19,South,180,0.0,2.7,25,0.00,,,0.00,WUHU21623XXSP,2013-01-23 17:54:00,
2013-01-23 09:59:00,60.4,24.0,30.18,South,180,0.0,3.4,25,0.00,,,0.00,WUHU21623XXSP,2013-01-23 17:59:00,
2013-01-23 10:04:00,60.6,24.2,30.18,SSW,202,1.6,4.3,25,0.00,,,0.00,WUHU21623XXSP,2013-01-23 18:04:00,
2013-01-23 10:09:00,61.2,23.7,30.18,SSW,202,0.0,4.3,24,0.00,,,0.00,WUHU21623XXSP,2013-01-23 18:09:00,
2013-01-23 10:14:00,61.7,25.1,30.18,SSW,202,2.2,5.1,25,0.00,,,0.00,WUHU21623XXSP,2013-01-23 18:14:00,
2013-01-23 10:19:00,62.2,25.6,30.18,SSW,202,0.0,5.1,25,0.00,,,0.00,WUHU21623XXSP,2013-01-23 18:19:00,
2013-01-23 10:24:00,63.5,25.7,30.19,SW,225,4.5,10.5,24,0.00,,,0.00,WUHU21623XXSP,2013-01-23 18:24:00,
2013-01-23 10:29:00,64.4,26.4,30.19,WSW,247,5.1,10.5,24,0.00,,,0.00,WUHU21623XXSP,2013-01-23 18:29:00,
2013-01-23 10:34:00,64.9,25.9,30.19,WSW,247,6.5,11.2,23,0.00,,,0.00,WUHU21623XXSP,2013-01-23 18:34:00,
2013-01-23 10:39:00,65.1,26.0,30.19,WSW,247,4.5,11.2,23,0.00,,,0.00,WUHU21623XXSP,2013-01-23 18:39:00,
2013-01-23 10:44:00,65.5,26.3,30.18,WSW,247,8.1,11.4,23,0.00,,,0.00,WUHU21623XXSP,2013-01-23 18:44:00,
2013-01-23 10:49:00,66.0,26.8,30.18,SW,225,3.4,11.4,23,0.00,,,0.00,WUHU21623XXSP,2013-01-23 18:49:00,
2013-01-23 10:54:00,66.4,27.1,30.18,SW,225,3.4,11.4,23,0.00,,,0.00,WUHU21623XXSP,2013-01-23 18:54:00,
2013-01-23 10:59:00,66.9,27.5,30.18,WSW,247,4.0,11.2,23,0.00,,,0.00,WUHU21623XXSP,2013-01-23 18:59:00,
2013-01-23 11:04:00,67.8,28.3,30.17,WSW,247,0.0,9.4,23,0.00,,,0.00,WUHU21623XXSP,2013-01-23 19:04:00,
2013-01-23 11:09:00,68.5,28.9,30.17,WSW,247,0.0,11.4,23,0.00,,,0.00,WUHU21623XXSP,2013-01-23 19:09:00,
2013-01-23 11:14:00,68.4,28.8,30.17,SW,225,2.2,11.4,23,0.00,,,0.00,WUHU21623XXSP,2013-01-23 19:14:00,
2013-01-23 11:19:00,67.8,28.3,30.17,West,270,0.0,12.1,23,0.00,,,0.00,WUHU21623XXSP,2013-01-23 19:19:00,
2013-01-23 11:24:00,67.1,27.7,30.16,SW,225,3.4,12.1,23,0.00,,,0.00,WUHU21623XXSP,2013-01-23 19:24:00,
2013-01-23 11:29:00,67.1,28.7,30.16,WSW,247,2.0,9.8,24,0.00,,,0.00,WUHU21623XXSP,2013-01-23 19:29:00,
2013-01-23 11:34:00,67.3,27.9,30.16,SW,225,2.0,9.8,23,0.00,,,0.00,WUHU21623XXSP,2013-01-23 19:34:00,
2013-01-23 11:39:00,68.4,28.8,30.16,SW,225,0.0,8.1,23,0.00,,,0.00,WUHU21623XXSP,2013-01-23 19:39:00,
2013-01-23 11:44:00,69.8,30.0,30.15,SW,225,0.0,8.5,23,0.00,,,0.00,WUHU21623XXSP,2013-01-23 19:44:00,
2013-01-23 11:49:00,70.9,29.9,30.15,SSW,202,1.6,8.9,22,0.00,,,0.00,WUHU21623XXSP,2013-01-23 19:49:00,
2013-01-23 11:54:00,71.8,30.6,30.15,SSW,202,0.0,8.9,22,0.00,,,0.00,WUHU21623XXSP,2013-01-23 19:54:00,
2013-01-23 12:00:00,71.8,30.6,30.15,South,180,0.0,7.8,22,0.00,,,0.00,WUHU21623XXSP,2013-01-23 20:00:00,
2013-01-23 12:05:00,70.7,29.7,30.15,South,180,0.0,13.6,22,0.00,,,0.00,WUHU21623XXSP,2013-01-23 20:05:00,
2013-01-23 12:10:00,70.3,30.4,30.15,SSW,202,7.6,13.6,23,0.00,,,0.00,WUHU21623XXSP,2013-01-23 20:10:00,
2013-01-23 12:15:00,70.0,30.1,30.14,SSW,202,4.9,13.0,23,0.00,,,0.00,WUHU21623XXSP,2013-01-23 20:15:00,
2013-01-23 12:20:00,70.3,30.4,30.14,WSW,247,0.0,15.0,23,0.00,,,0.00,WUHU21623XXSP,2013-01-23 20:20:00,
2013-01-23 12:25:00,70.2,29.3,30.14,SW,225,0.0,15.0,22,0.00,,,0.00,WUHU21623XXSP,2013-01-23 20:25:00,
2013-01-23 12:30:00,70.0,29.1,30.14,SW,225,4.5,10.1,22,0.00,,,0.00,WUHU21623XXSP,2013-01-23 20:30:00,
2013-01-23 12:35:00,69.6,28.8,30.13,SW,225,3.6,11.2,22,0.00,,,0.00,WUHU21623XXSP,2013-01-23 20:35:00,
2013-01-23 12:40:00,69.4,29.7,30.13,SW,225,0.0,11.2,23,0.00,,,0.00,WUHU21623XXSP,2013-01-23 20:40:00,
2013-01-23 12:45:00,69.1,29.4,30.13,SW,225,4.3,8.1,23,0.00,,,0.00,WUHU21623XXSP,2013-01-23 20:45:00,
2013-01-23 12:50:00,68.7,29.1,30.13,SW,225,4.7,8.1,23,0.00,,,0.00,WUHU21623XXSP,2013-01-23 20:50:00,
2013-01-23 12:55:00,68.7,29.1,30.13,SW,225,6.5,12.1,23,0.00,,,0.00,WUHU21623XXSP,2013-01-23 20:55:00,
2013-01-23 13:00:00,68.4,28.8,30.13,SW,225,0.0,12.1,23,0.00,,,0.00,WUHU21623XXSP,2013-01-23 21:00:00,
2013-01-23 13:05:00,68.2,27.6,30.13,SW,225,0.0,10.5,22,0.00,,,0.00,WUHU21623XXSP,2013-01-23 21:05:00,
2013-01-23 13:10:00,68.5,27.9,30.13,SW,225,3.1,7.2,22,0.00,,,0.00,WUHU21623XXSP,2013-01-23 21:10:00,
2013-01-23 13:15:00,68.7,28.1,30.12,SW,225,6.3,7.2,22,0.00,,,0.00,WUHU21623XXSP,2013-01-23 21:15:00,
2013-01-23 13:20:00,68.9,28.2,30.12,SW,225,3.6,7.6,22,0.00,,,0.00,WUHU21623XXSP,2013-01-23 21:20:00,
2013-01-23 13:25:00,68.7,28.1,30.12,SW,225,0.0,7.6,22,0.00,,,0.00,WUHU21623XXSP,2013-01-23 21:25:00,
2013-01-23 13:30:00,68.7,28.1,30.12,SW,225,0.0,6.9,22,0.00,,,0.00,WUHU21623XXSP,2013-01-23 21:30:00,
2013-01-23 13:35:00,69.1,26.4,30.12,SW,225,4.7,6.9,20,0.00,,,0.00,WUHU21623XXSP,2013-01-23 21:35:00,
2013-01-23 13:40:00,68.7,26.1,30.11,SW,225,5.6,7.2,20,0.00,,,0.00,WUHU21623XXSP,2013-01-23 21:40:00,
2013-01-23 13:45:00,68.5,26.0,30.11,SW,225,0.0,7.2,20,0.00,,,0.00,WUHU21623XXSP,2013-01-23 21:45:00,
2013-01-23 13:50:00,68.2,26.7,30.11,SW,225,0.0,6.3,21,0.00,,,0.00,WUHU21623XXSP,2013-01-23 21:50:00,
2013-01-23 13:55:00,68.2,26.7,30.11,SW,225,0.0,7.6,21,0.00,,,0.00,WUHU21623XXSP,2013-01-23 21:55:00,
2013-01-23 14:00:00,68.4,25.8,30.11,WSW,247,4.9,7.6,20,0.00,,,0.00,WUHU21623XXSP,2013-01-23 22:00:00,
2013-01-23 14:05:00,68.5,26.0,30.11,WSW,247,1.6,8.3,20,0.00,,,0.00,WUHU21623XXSP,2013-01-23 22:05:00,
2013-01-23 14:10:00,68.2,25.7,30.11,WSW,247,2.9,9.2,20,0.00,,,0.00,WUHU21623XXSP,2013-01-23 22:10:00,
2013-01-23 14:15:00,68.7,26.1,30.11,WSW,247,3.4,9.2,20,0.00,,,0.00,WUHU21623XXSP,2013-01-23 22:15:00,
2013-01-23 14:20:00,69.3,27.5,30.11,West,270,3.6,7.4,21,0.00,,,0.00,WUHU21623XXSP,2013-01-23 22:20:00,
2013-01-23 14:25:00,69.1,26.4,30.11,WSW,247,0.0,8.1,20,0.00,,,0.00,WUHU21623XXSP,2013-01-23 22:25:00,
2013-01-23 14:30:00,68.9,26.2,30.10,WSW,247,0.0,9.4,20,0.00,,,0.00,WUHU21623XXSP,2013-01-23 22:30:00,
2013-01-23 14:35:00,68.2,25.7,30.11,WSW,247,7.8,10.7,20,0.00,,,0.00,WUHU21623XXSP,2013-01-23 22:35:00,
2013-01-23 14:40:00,68.2,25.7,30.11,WSW,247,0.0,11.6,20,0.00,,,0.00,WUHU21623XXSP,2013-01-23 22:40:00,
2013-01-23 14:45:00,67.6,25.2,30.11,WSW,247,0.0,11.6,20,0.00,,,0.00,WUHU21623XXSP,2013-01-23 22:45:00,
2013-01-23 14:50:00,67.3,24.9,30.11,West,270,3.8,11.0,20,0.00,,,0.00,WUHU21623XXSP,2013-01-23 22:50:00,
2013-01-23 14:55:00,67.1,24.7,30.11,West,270,1.8,6.9,20,0.00,,,0.00,WUHU21623XXSP,2013-01-23 22:55:00,
2013-01-23 15:00:00,66.9,24.5,30.11,WSW,247,0.0,6.9,20,0.00,,,0.00,WUHU21623XXSP,2013-01-23 23:00:00,
2013-01-23 15:05:00,66.6,24.4,30.11,WSW,247,3.4,8.3,20,0.00,,,0.00,WUHU21623XXSP,2013-01-23 23:05:00,
2013-01-23 15:10:00,66.4,24.1,30.11,WSW,247,0.0,8.3,20,0.00,,,0.00,WUHU21623XXSP,2013-01-23 23:10:00,
2013-01-23 15:15:00,66.2,24.9,30.11,West,270,3.4,8.5,21,0.00,,,0.00,WUHU21623XXSP,2013-01-23 23:15:00,
2013-01-23 15:20:00,66.2,25.9,30.11,West,270,2.5,8.5,22,0.00,,,0.00,WUHU21623XXSP,2013-01-23 23:20:00,
2013-01-23 15:25:00,66.0,24.7,30.11,WSW,247,0.0,8.3,21,0.00,,,0.00,WUHU21623XXSP,2013-01-23 23:25:00,
2013-01-23 15:30:00,65.8,24.6,30.11,WSW,247,0.0,8.1,21,0.00,,,0.00,WUHU21623XXSP,2013-01-23 23:30:00,
2013-01-23 15:36:00,65.7,24.5,30.11,SW,225,0.0,9.2,21,0.00,,,0.00,WUHU21623XXSP,2013-01-23 23:36:00,
2013-01-23 15:41:00,65.3,24.2,30.11,SW,225,4.3,9.2,21,0.00,,,0.00,WUHU21623XXSP,2013-01-23 23:41:00,
2013-01-23 15:46:00,65.1,24.0,30.11,WSW,247,7.2,8.3,21,0.00,,,0.00,WUHU21623XXSP,2013-01-23 23:46:00,
2013-01-23 15:51:00,64.9,23.9,30.10,WSW,247,0.0,7.4,21,0.00,,,0.00,WUHU21623XXSP,2013-01-23 23:51:00,
2013-01-23 15:56:00,64.9,24.9,30.11,WSW,247,4.0,7.4,22,0.00,,,0.00,WUHU21623XXSP,2013-01-23 23:56:00,
2013-01-23 16:01:00,64.6,24.6,30.11,WSW,247,2.7,8.1,22,0.00,,,0.00,WUHU21623XXSP,2013-01-24 00:01:00,
2013-01-23 16:06:00,64.6,24.6,30.11,SW,225,6.3,8.9,22,0.00,,,0.00,WUHU21623XXSP,2013-01-24 00:06:00,
2013-01-23 16:11:00,64.2,23.3,30.11,SW,225,5.8,10.1,21,0.00,,,0.00,WUHU21623XXSP,2013-01-24 00:11:00,
2013-01-23 16:16:00,64.0,23.1,30.11,SW,225,5.6,10.1,21,0.00,,,0.00,WUHU21623XXSP,2013-01-24 00:16:00,
2013-01-23 16:21:00,63.9,24.0,30.11,SW,225,4.3,8.1,22,0.00,,,0.00,WUHU21623XXSP,2013-01-24 00:21:00,
2013-01-23 16:26:00,63.7,24.8,30.11,SW,225,3.8,8.7,23,0.00,,,0.00,WUHU21623XXSP,2013-01-24 00:26:00,
2013-01-23 16:31:00,63.5,24.7,30.11,SW,225,0.0,9.6,23,0.00,,,0.00,WUHU21623XXSP,2013-01-24 00:31:00,
2013-01-23 16:36:00,63.1,24.4,30.11,SW,225,2.7,9.6,23,0.00,,,0.00,WUHU21623XXSP,2013-01-24 00:36:00,
2013-01-23 16:41:00,63.1,24.4,30.11,SW,225,0.0,9.4,23,0.00,,,0.00,WUHU21623XXSP,2013-01-24 00:41:00,
2013-01-23 16:46:00,63.0,24.2,30.11,WSW,247,2.7,11.9,23,0.00,,,0.00,WUHU21623XXSP,2013-01-24 00:46:00,
2013-01-23 16:51:00,62.8,24.1,30.12,SW,225,8.7,11.9,23,0.00,,,0.00,WUHU21623XXSP,2013-01-24 00:51:00,
2013-01-23 16:56:00,62.4,23.8,30.12,SW,225,5.8,8.7,23,0.00,,,0.00,WUHU21623XXSP,2013-01-24 00:56:00,
2013-01-23 17:01:00,62.2,23.6,30.11,SW,225,0.0,9.4,23,0.00,,,0.00,WUHU21623XXSP,2013-01-24 01:01:00,
2013-01-23 17:06:00,62.2,23.6,30.11,SW,225,1.6,9.4,23,0.00,,,0.00,WUHU21623XXSP,2013-01-24 01:06:00,
2013-01-23 17:11:00,61.9,23.3,30.12,SW,225,0.0,5.1,23,0.00,,,0.00,WUHU21623XXSP,2013-01-24 01:11:00,
2013-01-23 17:16:00,61.7,23.2,30.11,SW,225,0.0,5.6,23,0.00,,,0.00,WUHU21623XXSP,2013-01-24 01:16:00,
2013-01-23 17:21:00,61.5,23.0,30.11,SW,225,4.9,8.3,23,0.00,,,0.00,WUHU21623XXSP,2013-01-24 01:21:00,
2013-01-23 17:26:00,61.5,23.0,30.11,SW,225,2.0,8.3,23,0.00,,,0.00,WUHU21623XXSP,2013-01-24 01:26:00,
2013-01-23 17:31:00,61.5,24.0,30.11,SW,225,0.0,7.6,24,0.00,,,0.00,WUHU21623XXSP,2013-01-24 01:31:00,
2013-01-23 17:36:00,61.3,23.8,30.11,SW,225,4.3,6.7,24,0.00,,,0.00,WUHU21623XXSP,2013-01-24 01:36:00,
2013-01-23 17:41:00,61.3,23.8,30.11,SW,225,0.0,6.7,24,0.00,,,0.00,WUHU21623XXSP,2013-01-24 01:41:00,
2013-01-23 17:46:00,61.2,23.7,30.11,SW,225,3.4,5.8,24,0.00,,,0.00,WUHU21623XXSP,2013-01-24 01:46:00,
2013-01-23 17:51:00,61.0,23.5,30.11,SW,225,0.0,4.9,24,0.00,,,0.00,WUHU21623XXSP,2013-01-24 01:51:00,
2013-01-23 17:56:00,61.0,23.5,30.11,SW,225,2.0,4.5,24,0.00,,,0.00,WUHU21623XXSP,2013-01-24 01:56:00,
2013-01-23 18:01:00,61.0,24.5,30.11,SW,225,0.0,5.4,25,0.00,,,0.00,WUHU21623XXSP,2013-01-24 02:01:00,
2013-01-23 18:06:00,60.6,24.2,30.11,SW,225,0.0,5.4,25,0.00,,,0.00,WUHU21623XXSP,2013-01-24 02:06:00,
2013-01-23 18:11:00,60.6,24.2,30.11,SW,225,0.0,6.0,25,0.00,,,0.00,WUHU21623XXSP,2013-01-24 02:11:00,
2013-01-23 18:16:00,60.6,24.2,30.11,SW,225,0.0,6.0,25,0.00,,,0.00,WUHU21623XXSP,2013-01-24 02:16:00,
2013-01-23 18:21:00,60.6,24.2,30.11,SW,225,1.3,5.6,25,0.00,,,0.00,WUHU21623XXSP,2013-01-24 02:21:00,
2013-01-23 18:26:00,60.6,24.2,30.11,SW,225,5.1,6.3,25,0.00,,,0.00,WUHU21623XXSP,2013-01-24 02:26:00,
2013-01-23 18:31:00,60.4,24.0,30.11,SW,225,5.8,6.7,25,0.00,,,0.00,WUHU21623XXSP,2013-01-24 02:31:00,
2013-01-23 18:36:00,60.4,24.0,30.11,SW,225,5.6,10.7,25,0.00,,,0.00,WUHU21623XXSP,2013-01-24 02:36:00,
2013-01-23 18:41:00,60.4,24.0,30.11,SW,225,3.1,10.7,25,0.00,,,0.00,WUHU21623XXSP,2013-01-24 02:41:00,
2013-01-23 18:46:00,60.4,24.0,30.11,SW,225,5.1,8.1,25,0.00,,,0.00,WUHU21623XXSP,2013-01-24 02:46:00,
2013-01-23 18:51:00,60.4,24.0,30.11,SW,225,7.2,9.8,25,0.00,,,0.00,WUHU21623XXSP,2013-01-24 02:51:00,
2013-01-23 18:56:00,60.4,23.1,30.11,SW,225,0.0,9.8,24,0.00,,,0.00,WUHU21623XXSP,2013-01-24 02:56:00,
2013-01-23 19:01:00,60.4,23.1,30.11,SW,225,1.3,8.3,24,0.00,,,0.00,WUHU21623XXSP,2013-01-24 03:01:00,
2013-01-23 19:06:00,60.4,23.1,30.11,SW,225,0.0,8.3,24,0.00,,,0.00,WUHU21623XXSP,2013-01-24 03:06:00,
2013-01-23 19:11:00,60.1,22.8,30.11,SW,225,3.6,7.4,24,0.00,,,0.00,WUHU21623XXSP,2013-01-24 03:11:00,
2013-01-23 19:16:00,60.1,22.8,30.11,SW,225,0.0,7.8,24,0.00,,,0.00,WUHU21623XXSP,2013-01-24 03:16:00,
2013-01-23 19:21:00,60.1,22.8,30.11,SW,225,5.1,8.1,24,0.00,,,0.00,WUHU21623XXSP,2013-01-24 03:21:00,
2013-01-23 19:26:00,59.9,22.6,30.11,South,180,3.8,8.7,24,0.00,,,0.00,WUHU21623XXSP,2013-01-24 03:26:00,
2013-01-23 19:31:00,59.9,22.6,30.11,South,180,2.5,8.7,24,0.00,,,0.00,WUHU21623XXSP,2013-01-24 03:31:00,
2013-01-23 19:36:00,59.7,23.4,30.11,SSW,202,4.9,10.5,25,0.00,,,0.00,WUHU21623XXSP,2013-01-24 03:36:00,
2013-01-23 19:41:00,59.7,24.4,30.12,SSW,202,2.0,10.5,26,0.00,,,0.00,WUHU21623XXSP,2013-01-24 03:41:00,
2013-01-23 19:46:00,59.7,24.4,30.11,SSW,202,0.0,8.5,26,0.00,,,0.00,WUHU21623XXSP,2013-01-24 03:46:00,
2013-01-23 19:51:00,59.7,24.4,30.12,SSW,202,2.0,8.1,26,0.00,,,0.00,WUHU21623XXSP,2013-01-24 03:51:00,
2013-01-23 19:56:00,59.5,24.2,30.11,SSW,202,5.6,9.8,26,0.00,,,0.00,WUHU21623XXSP,2013-01-24 03:56:00,
2013-01-23 20:01:00,59.5,25.2,30.11,SSW,202,0.0,10.1,27,0.00,,,0.00,WUHU21623XXSP,2013-01-24 04:01:00,
2013-01-23 20:06:00,59.4,26.0,30.11,South,180,0.0,10.1,28,0.00,,,0.00,WUHU21623XXSP,2013-01-24 04:06:00,
2013-01-23 20:11:00,59.2,25.9,30.12,SSE,157,14.5,14.5,28,0.00,,,0.00,WUHU21623XXSP,2013-01-24 04:11:00,
2013-01-23 20:16:00,59.2,26.9,30.11,South,180,11.6,14.5,29,0.00,,,0.00,WUHU21623XXSP,2013-01-24 04:16:00,
2013-01-23 20:21:00,59.2,27.8,30.11,SSE,157,10.1,15.9,30,0.00,,,0.00,WUHU21623XXSP,2013-01-24 04:21:00,
2013-01-23 20:26:00,59.2,26.9,30.11,South,180,2.0,15.9,29,0.00,,,0.00,WUHU21623XXSP,2013-01-24 04:26:00,
2013-01-23 20:31:00,59.2,27.8,30.12,South,180,8.9,14.8,30,0.00,,,0.00,WUHU21623XXSP,2013-01-24 04:31:00,
2013-01-23 20:36:00,59.2,27.8,30.12,SSE,157,0.0,8.9,30,0.00,,,0.00,WUHU21623XXSP,2013-01-24 04:36:00,
2013-01-23 20:41:00,59.2,27.8,30.12,SSE,157,0.0,7.6,30,0.00,,,0.00,WUHU21623XXSP,2013-01-24 04:41:00,
2013-01-23 20:46:00,59.2,28.5,30.12,SSE,157,3.4,8.3,31,0.00,,,0.00,WUHU21623XXSP,2013-01-24 04:46:00,
2013-01-23 20:51:00,59.2,27.8,30.12,SSE,157,0.0,8.3,30,0.00,,,0.00,WUHU21623XXSP,2013-01-24 04:51:00,
2013-01-23 20:56:00,59.2,28.5,30.12,SSE,157,6.9,8.3,31,0.00,,,0.00,WUHU21623XXSP,2013-01-24 04:56:00,
2013-01-23 21:00:00,59.0,28.4,30.12,SSE,157,8.5,10.3,31,0.00,,,0.00,WUHU21623XXSP,2013-01-24 05:00:00,
2013-01-23 21:03:00,58.8,28.2,30.12,SSE,157,7.4,11.6,31,0.00,,,0.00,WUHU21623XXSP,2013-01-24 05:03:00,
2013-01-23 21:04:00,58.8,28.2,30.12,SSE,157,1.1,11.6,31,0.00,,,0.00,WUHU21623XXSP,2013-01-24 05:04:00,
2013-01-23 21:09:00,58.8,28.2,30.11,SSE,157,4.5,11.6,31,0.00,,,0.00,WUHU21623XXSP,2013-01-24 05:09:00,
2013-01-23 21:14:00,58.8,28.2,30.12,SSE,157,0.0,7.6,31,0.00,,,0.00,WUHU21623XXSP,2013-01-24 05:14:00,
2013-01-23 21:19:00,58.8,28.2,30.11,SSE,157,0.0,6.5,31,0.00,,,0.00,WUHU21623XXSP,2013-01-24 05:19:00,
2013-01-23 21:24:00,58.8,28.2,30.11,SSE,157,0.0,0.0,31,0.00,,,0.00,WUHU21623XXSP,2013-01-24 05:24:00,
2013-01-23 21:29:00,58.8,28.2,30.11,SSE,157,0.0,0.0,31,0.00,,,0.00,WUHU21623XXSP,2013-01-24 05:29:00,
2013-01-23 21:34:00,58.8,28.2,30.12,SSE,157,0.0,2.0,31,0.00,,,0.00,WUHU21623XXSP,2013-01-24 05:34:00,
2013-01-23 21:39:00,58.8,28.9,30.13,SSE,157,2.0,3.4,32,0.00,,,0.00,WUHU21623XXSP,2013-01-24 05:39:00,
2013-01-23 21:44:00,58.8,29.6,30.13,South,180,0.0,4.9,33,0.00,,,0.00,WUHU21623XXSP,2013-01-24 05:44:00,
2013-01-23 21:49:00,58.8,29.6,30.13,South,180,0.0,11.0,33,0.00,,,0.00,WUHU21623XXSP,2013-01-24 05:49:00,
2013-01-23 21:54:00,58.8,29.6,30.13,South,180,2.0,11.0,33,0.00,,,0.00,WUHU21623XXSP,2013-01-24 05:54:00,
2013-01-23 21:59:00,58.8,29.6,30.12,SSE,157,4.0,10.5,33,0.00,,,0.00,WUHU21623XXSP,2013-01-24 05:59:00,
2013-01-23 22:04:00,58.8,29.6,30.12,SSE,157,6.0,11.6,33,0.00,,,0.00,WUHU21623XXSP,2013-01-24 06:04:00,
2013-01-23 22:09:00,58.8,29.6,30.13,South,180,7.2,11.6,33,0.00,,,0.00,WUHU21623XXSP,2013-01-24 06:09:00,
2013-01-23 22:14:00,58.6,29.5,30.13,South,180,2.9,11.4,33,0.00,,,0.00,WUHU21623XXSP,2013-01-24 06:14:00,
2013-01-23 22:19:00,58.5,29.3,30.13,South,180,4.3,11.4,33,0.00,,,0.00,WUHU21623XXSP,2013-01-24 06:19:00,
2013-01-23 22:24:00,58.6,29.5,30.14,South,180,0.0,8.3,33,0.00,,,0.00,WUHU21623XXSP,2013-01-24 06:24:00,
2013-01-23 22:29:00,58.6,29.5,30.14,South,180,1.6,7.8,33,0.00,,,0.00,WUHU21623XXSP,2013-01-24 06:29:00,
2013-01-23 22:34:00,58.6,28.8,30.14,South,180,0.0,9.6,32,0.00,,,0.00,WUHU21623XXSP,2013-01-24 06:34:00,
2013-01-23 22:39:00,58.5,28.6,30.14,South,180,2.9,9.6,32,0.00,,,0.00,WUHU21623XXSP,2013-01-24 06:39:00,
2013-01-23 22:45:00,58.6,28.1,30.14,South,180,0.0,6.7,31,0.00,,,0.00,WUHU21623XXSP,2013-01-24 06:45:00,
2013-01-23 22:50:00,58.5,27.9,30.14,South,180,0.0,5.8,31,0.00,,,0.00,WUHU21623XXSP,2013-01-24 06:50:00,
2013-01-23 22:55:00,58.5,27.9,30.14,South,180,0.0,5.6,31,0.00,,,0.00,WUHU21623XXSP,2013-01-24 06:55:00,
2013-01-23 23:00:00,58.5,27.9,30.14,South,180,1.1,2.7,31,0.00,,,0.00,WUHU21623XXSP,2013-01-24 07:00:00,
2013-01-23 23:05:00,58.3,27.7,30.14,South,180,1.8,2.5,31,0.00,,,0.00,WUHU21623XXSP,2013-01-24 07:05:00,
2013-01-23 23:10:00,58.1,26.9,30.14,South,180,0.0,6.5,30,0.00,,,0.00,WUHU21623XXSP,2013-01-24 07:10:00,
2013-01-23 23:15:00,58.1,26.9,30.14,South,180,0.0,6.5,30,0.00,,,0.00,WUHU21623XXSP,2013-01-24 07:15:00,
2013-01-23 23:20:00,58.1,25.9,30.14,South,180,0.0,3.8,29,0.00,,,0.00,WUHU21623XXSP,2013-01-24 07:20:00,
2013-01-23 23:25:00,57.7,25.6,30.14,South,180,0.0,0.0,29,0.00,,,0.00,WUHU21623XXSP,2013-01-24 07:25:00,
2013-01-23 23:30:00,57.9,25.7,30.14,South,180,0.0,0.0,29,0.00,,,0.00,WUHU21623XXSP,2013-01-24 07:30:00,
2013-01-23 23:35:00,57.9,25.7,30.14,South,180,0.0,0.0,29,0.00,,,0.00,WUHU21623XXSP,2013-01-24 07:35:00,
2013-01-23 23:40:00,57.7,24.6,30.14,South,180,0.0,4.5,28,0.00,,,0.00,WUHU21623XXSP,2013-01-24 07:40:00,
2013-01-23 23:45:00,57.9,25.7,30.14,South,180,0.0,4.5,29,0.00,,,0.00,WUHU21623XXSP,2013-01-24 07:45:00,
2013-01-23 23:50:00,57.9,26.7,30.14,South,180,0.0,0.9,30,0.00,,,0.00,WUHU21623XXSP,2013-01-24 07:50:00,
2013-01-23 23:55:00,57.9,28.1,30.14,South,180,0.0,0.0,32,0.00,,,0.00,WUHU21623XXSP,2013-01-24 07:55:00,